Stations météo

réclame
Mon MeteoGroup
Ile Rousse, France (7753): Température de l'air & dewpoint: 12.01.2019 13:00:00 - 18.01.2019 13:00:00 (CET)Ile Rousse, France (7753): Vitesse du vent & gusts: 12.01.2019 13:00:00 - 18.01.2019 13:00:00 (CET)Ile Rousse, France (7753): Direction du vent: 12.01.2019 13:00:00 - 18.01.2019 13:00:00 (CET)Ile Rousse, France (7753): reduced air pressure: 12.01.2019 13:00:00 - 18.01.2019 13:00:00 (CET)Ile Rousse, France (7753): visibility: 12.01.2019 13:00:00 - 18.01.2019 13:00:00 (CET)Ile Rousse, France (7753): Quantités de précipitations: 12.01.2019 13:00:00 - 18.01.2019 13:00:00 (CET)
Date & Time tt [°C] td [°C] ff [km/h] ff [knt] fx [km/h] fx [knt] dd ppp [hPa] vv [km] rr [mm]
18.01.2019 13:00:00 - - - - - - - - - -
18.01.2019 12:00:00 11,2 1,7 31 17 53 29 WSW 1011,3 - 0,0
18.01.2019 11:00:00 10,8 2,1 30 16 61 33 WSW 1011,9 - 0,0
18.01.2019 10:00:00 10,5 1,8 32 17 58 31 WSW 1011,2 20 0,0
18.01.2019 09:00:00 10,0 2,8 34 19 56 30 WSW 1010,5 - 0,0
18.01.2019 08:00:00 9,8 2,6 38 21 74 40 SW 1010,1 - 0,0
18.01.2019 07:00:00 9,9 1,5 44 24 83 45 SW 1009,4 20 0,0
18.01.2019 06:00:00 10,1 1,5 46 25 82 44 SW 1008,7 - 0,0
18.01.2019 05:00:00 10,4 2,2 51 28 84 46 SW 1008,7 - 0,0
18.01.2019 04:00:00 11,0 1,2 51 28 91 49 SW 1009,0 20 0,0
18.01.2019 03:00:00 10,9 3,9 53 28 81 44 SW 1010,4 - 0,0
18.01.2019 02:00:00 11,1 5,6 53 28 93 50 SW 1010,4 - 0,0
18.01.2019 01:00:00 11,4 4,8 54 29 86 47 SW 1010,2 - 0,0
18.01.2019 00:00:00 11,5 4,0 49 27 78 42 SW 1010,7 - 0,0
17.01.2019 23:00:00 11,6 3,9 50 27 77 41 SW 1011,0 - 0,0
17.01.2019 22:00:00 11,3 3,6 39 21 74 40 SW 1011,4 - 0,0
17.01.2019 21:00:00 11,5 4,0 45 25 64 35 SW 1011,5 - 0,0
17.01.2019 20:00:00 11,3 4,5 44 24 71 38 SW 1012,0 - 0,0
17.01.2019 19:00:00 10,9 5,4 42 23 72 39 SW 1012,1 18 0,0
17.01.2019 18:00:00 11,3 5,8 33 18 56 30 SW 1012,4 - 0,0
17.01.2019 17:00:00 11,8 4,0 36 19 67 36 SW 1012,3 - 0,0
17.01.2019 16:00:00 12,2 4,4 39 21 61 33 SW 1012,5 - 0,0
17.01.2019 15:00:00 11,8 4,5 38 21 63 34 SW 1013,0 - 0,0
17.01.2019 14:00:00 12,1 4,3 37 20 64 35 SW 1013,4 - 0,0
17.01.2019 13:00:00 13,2 6,1 29 15 46 25 WSW 1013,7 20 0,0
17.01.2019 12:00:00 12,7 4,9 23 12 42 23 WSW 1014,8 - 0,0
17.01.2019 11:00:00 13,0 5,2 20 11 34 18 WSW 1015,5 - 0,0
17.01.2019 10:00:00 12,8 4,5 8 5 20 11 WSW 1015,5 - 0,0
17.01.2019 09:00:00 12,3 2,7 6 4 18 10 SW 1015,4 - 0,0
17.01.2019 08:00:00 11,2 3,0 10 5 27 14 SSE 1015,2 - 0,0
17.01.2019 07:00:00 11,9 2,9 18 10 35 19 S 1015,5 - 0,0
17.01.2019 06:00:00 11,5 3,8 24 13 51 27 SSW 1015,6 - 0,0
17.01.2019 05:00:00 11,2 2,5 11 6 17 9 SSE 1016,1 - 0,0
17.01.2019 04:00:00 11,7 1,9 10 6 26 14 WSW 1016,7 - 0,0
17.01.2019 03:00:00 11,9 1,5 21 11 30 16 S 1017,2 - 0,0
17.01.2019 02:00:00 11,3 2,6 24 13 29 15 S 1017,6 - 0,0
17.01.2019 01:00:00 11,6 2,9 19 10 31 17 S 1018,5 - 0,0
17.01.2019 00:00:00 11,6 3,1 5 3 9 5 SSE 1019,1 - 0,0
16.01.2019 23:00:00 11,4 3,2 4 2 11 6 SSW 1019,4 - 0,0
16.01.2019 22:00:00 11,3 3,3 6 3 14 7 SE 1019,3 - 0,0
16.01.2019 21:00:00 10,9 4,4 3 2 17 9 WNW 1019,1 - 0,0
16.01.2019 20:00:00 11,0 3,3 7 4 15 8 W 1019,0 - 0,0
16.01.2019 19:00:00 10,9 4,6 12 7 16 9 ESE 1018,8 - 0,0
16.01.2019 18:00:00 11,2 4,9 6 4 9 5 ESE 1018,9 - 0,0
16.01.2019 17:00:00 11,4 6,3 8 4 16 8 E 1018,8 - 0,0
16.01.2019 16:00:00 11,4 6,5 13 7 16 9 E 1019,1 20 0,0
16.01.2019 15:00:00 12,6 6,2 12 6 19 10 ENE 1019,3 - 0,0
16.01.2019 14:00:00 12,0 5,4 10 5 15 8 NE 1019,7 - 0,0
16.01.2019 13:00:00 12,5 5,9 5 3 11 6 NNE 1020,2 - 0,0
16.01.2019 12:00:00 13,4 4,8 2 1 7 4 ESE 1020,9 - 0,0
16.01.2019 11:00:00 13,0 3,4 3 1 10 6 W 1021,5 - 0,0
16.01.2019 10:00:00 11,5 4,5 4 2 9 5 WSW 1021,6 - 0,0
16.01.2019 09:00:00 10,2 5,4 5 3 6 4 WSW 1021,1 - 0,0
16.01.2019 08:00:00 10,2 2,3 2 1 8 5 SW 1020,8 - 0,0
16.01.2019 07:00:00 10,1 1,7 7 4 9 5 E 1020,6 40 0,0
16.01.2019 06:00:00 10,9 2,2 5 3 8 4 SE 1020,4 - 0,0
16.01.2019 05:00:00 11,1 1,9 5 3 12 7 SE 1020,4 - 0,0
16.01.2019 04:00:00 11,5 2,2 8 4 12 6 SSE 1020,7 40 0,0
16.01.2019 03:00:00 11,0 2,8 7 4 10 5 ESE 1021,2 - 0,0
16.01.2019 02:00:00 10,8 3,3 0 0 4 2 N 1021,0 - 0,0
16.01.2019 01:00:00 10,4 3,4 3 2 8 4 W 1021,1 - 0,0
16.01.2019 00:00:00 9,6 4,0 5 3 11 6 E 1021,2 - 0,0
15.01.2019 23:00:00 9,9 4,3 9 5 27 15 E 1021,1 - 0,0
15.01.2019 22:00:00 10,1 3,8 19 10 26 14 SW 1020,9 - 0,0
15.01.2019 21:00:00 9,9 5,3 8 4 10 5 W 1020,2 - 0,0
15.01.2019 20:00:00 10,4 4,5 2 1 18 10 NW 1019,8 18 0,0
15.01.2019 19:00:00 10,7 6,1 18 10 27 15 E 1019,3 - 0,0
15.01.2019 18:00:00 11,8 6,3 11 6 18 10 ESE 1019,2 - 0,0
15.01.2019 17:00:00 12,7 6,7 10 6 29 15 SW 1018,6 - 0,0
15.01.2019 16:00:00 14,0 7,5 18 10 35 19 WSW 1018,0 30 0,0
15.01.2019 15:00:00 14,3 8,0 21 12 46 25 WSW 1018,0 - 0,0
15.01.2019 14:00:00 14,6 8,1 23 12 40 22 WSW 1017,9 - 0,0
15.01.2019 13:00:00 15,1 7,6 18 10 35 19 WSW 1017,9 40 0,0
15.01.2019 12:00:00 14,0 6,8 19 10 39 21 WSW 1018,1 - 0,0
15.01.2019 11:00:00 13,7 4,6 24 13 39 21 WSW 1018,0 - 0,0
15.01.2019 10:00:00 12,7 -5,4 9 5 23 12 WSW 1017,4 - 0,0
15.01.2019 09:00:00 11,8 -11,1 12 7 29 15 E 1016,4 - 0,0
15.01.2019 08:00:00 12,4 -12,8 22 12 41 22 E 1014,9 - 0,0
15.01.2019 07:00:00 11,1 -5,0 24 13 46 25 ENE 1014,6 20 0,0
15.01.2019 06:00:00 12,6 -10,5 33 18 57 31 E 1013,9 - 0,0
15.01.2019 05:00:00 13,3 -11,3 28 15 42 23 ESE 1013,7 - 0,0
15.01.2019 04:00:00 12,0 -2,3 18 10 27 15 E 1013,9 - 0,0
15.01.2019 03:00:00 12,7 -2,4 24 13 34 19 E 1013,6 - 0,0
15.01.2019 02:00:00 13,9 -1,3 14 8 21 11 SE 1013,1 - 0,0
15.01.2019 01:00:00 14,0 -0,9 12 7 25 13 ESE 1012,5 - 0,0
15.01.2019 00:00:00 13,3 0,0 17 9 22 12 ESE 1011,8 - 0,0
14.01.2019 23:00:00 13,2 -0,5 13 7 19 10 ESE 1011,1 - 0,0
14.01.2019 22:00:00 13,8 -1,8 11 6 14 8 SE 1010,4 - 0,0
14.01.2019 21:00:00 13,9 -2,1 8 4 10 6 SE 1010,0 - 0,0
14.01.2019 20:00:00 14,0 0,6 3 1 9 5 S 1009,4 - 0,0
14.01.2019 19:00:00 13,7 2,3 4 2 17 9 NW 1009,0 15 0,0
14.01.2019 18:00:00 13,2 4,6 14 8 17 9 WSW 1008,3 - 0,0
14.01.2019 17:00:00 15,0 2,2 9 5 22 12 SW 1007,8 - 0,0
14.01.2019 16:00:00 16,3 5,3 10 5 23 12 SW 1007,2 35 0,0
14.01.2019 15:00:00 15,8 8,3 15 8 29 15 WSW 1006,4 - 0,0
14.01.2019 14:00:00 15,4 8,8 18 10 38 21 WSW 1006,0 - 0,0
14.01.2019 13:00:00 16,7 7,6 18 10 41 22 WSW 1005,0 15 0,0
14.01.2019 12:00:00 15,7 6,4 15 8 41 22 WSW 1005,1 - 0,0
14.01.2019 11:00:00 15,6 5,8 22 12 68 37 WSW 1004,8 - 0,0
14.01.2019 10:00:00 14,3 4,8 49 26 89 48 SW 1003,3 - 0,0
14.01.2019 09:00:00 13,4 5,0 57 31 87 47 SW 1001,9 - 0,0
14.01.2019 08:00:00 13,0 5,9 55 30 102 55 SW 1002,6 - 0,0
14.01.2019 07:00:00 12,8 5,9 71 39 117 63 SW 1000,6 18 0,0
14.01.2019 06:00:00 12,8 6,2 72 39 113 61 SW 1000,3 - 0,0
14.01.2019 05:00:00 12,9 6,2 71 39 117 63 SW 1001,2 - 0,0
14.01.2019 04:00:00 13,1 5,7 75 41 112 61 SW 1001,4 - 0,0
14.01.2019 03:00:00 13,4 4,0 64 34 97 52 SW 1003,1 - 0,0
14.01.2019 02:00:00 12,8 2,6 50 27 74 40 SW 1003,0 - 0,0
14.01.2019 01:00:00 12,4 2,5 44 24 68 37 SW 1005,1 - 0,0
14.01.2019 00:00:00 11,6 2,1 21 11 42 23 WSW 1006,7 - 0,0
13.01.2019 23:00:00 10,8 3,3 7 4 37 20 SSW 1007,8 - 0,0
13.01.2019 22:00:00 11,1 4,5 29 15 47 25 S 1008,2 - 0,0
13.01.2019 21:00:00 10,6 4,9 26 14 36 19 SSW 1008,8 - 0,0
13.01.2019 20:00:00 10,3 5,1 19 11 35 19 SSW 1009,4 - 0,0
13.01.2019 19:00:00 10,0 5,4 18 10 26 14 SSW 1010,4 15 0,0
13.01.2019 18:00:00 10,8 6,0 8 5 31 17 S 1010,1 - 0,0
13.01.2019 17:00:00 10,9 6,6 18 10 29 16 WSW 1010,8 - 0,0
13.01.2019 16:00:00 12,0 6,9 21 11 36 19 WSW 1010,5 15 0,0
13.01.2019 15:00:00 12,7 6,1 17 9 34 19 W 1011,0 - 0,0
13.01.2019 14:00:00 12,4 5,5 22 12 34 19 W 1011,4 - 0,0
13.01.2019 13:00:00 12,4 5,3 16 9 24 13 W 1012,0 18 0,0
13.01.2019 12:00:00 12,4 5,1 11 6 21 11 W 1012,9 - 0,0
13.01.2019 11:00:00 11,9 4,4 10 5 16 9 WSW 1013,7 - 0,0
13.01.2019 10:00:00 11,2 4,2 10 6 19 10 WSW 1013,0 18 0,0
13.01.2019 09:00:00 10,4 2,7 8 4 16 9 WSW 1012,3 - 0,0
13.01.2019 08:00:00 10,0 2,6 9 5 18 10 WSW 1010,8 - 0,0
13.01.2019 07:00:00 10,1 2,9 7 4 11 6 SW 1011,3 - 0,0
13.01.2019 06:00:00 10,1 2,2 5 3 17 9 SSE 1011,5 - 0,0
13.01.2019 05:00:00 9,9 1,8 11 6 23 12 SE 1011,8 - 0,0
13.01.2019 04:00:00 9,5 -0,1 14 7 21 12 E 1012,3 15 0,0
13.01.2019 03:00:00 8,4 -2,9 16 9 25 14 ENE 1012,6 - 0,0
13.01.2019 02:00:00 10,0 -5,6 10 5 16 9 SE 1012,2 - 0,0
13.01.2019 01:00:00 10,5 -5,5 10 5 14 8 E 1013,5 - 0,0
13.01.2019 00:00:00 10,9 -6,5 5 3 18 10 SSW 1014,6 - 0,0
12.01.2019 23:00:00 12,0 -6,5 14 8 29 15 S 1015,1 - 0,0
12.01.2019 22:00:00 11,6 -5,9 27 15 45 24 SW 1015,5 - 0,0
12.01.2019 21:00:00 10,2 -3,9 10 5 20 11 WSW 1017,5 - 0,0
12.01.2019 20:00:00 9,1 -0,3 17 9 23 13 SSE 1018,7 - 0,0
12.01.2019 19:00:00 9,1 0,5 9 5 14 8 W 1018,8 - 0,0
12.01.2019 18:00:00 9,7 0,0 11 6 37 20 S 1018,5 - 0,0
12.01.2019 17:00:00 10,1 2,7 25 13 39 21 WSW 1018,4 - 0,0
12.01.2019 16:00:00 10,9 2,2 25 14 40 22 WSW 1018,7 - 0,0
12.01.2019 15:00:00 11,9 2,3 24 13 41 22 WSW 1018,8 - 0,0
12.01.2019 14:00:00 11,6 1,5 19 11 34 19 W 1019,1 - 0,0
12.01.2019 13:00:00 11,4 0,8 14 8 27 15 W 1019,7 20 0,0

tt = Température de l'air
td = dewpoint
ff = Vitesse du vent
fx = gusts
dd = Direction du vent
ppp = reduced air pressure
vv = visibility
rr = Quantités de précipitations

stations d'obs. à proximité